This is the latest recevied weather packets stored in our database for station/object K9ABJ. If no packets are shown the sender has not sent any weather packets the latest 10 day(s).
| Time | Temp. | Humidity | Pressure | Rain* | Wind** | Luminosity | Snow |
|---|---|---|---|---|---|---|---|
| 1787984179 | 15.56° C | 93% | 1022 hPa | 0 mm | - | 0 W/m² | - |
| 1787983874 | 15.56° C | 93% | 1021.8 hPa | 0 mm | - | 0 W/m² | - |
| 1787983569 | 16.11° C | 93% | 1021.9 hPa | 0 mm | - | 0 W/m² | - |
| 1787983263 | 16.11° C | 93% | 1021.9 hPa | 0 mm | - | 0 W/m² | - |
| 1787982959 | 16.11° C | 93% | 1021.8 hPa | 0 mm | - | 0 W/m² | - |
| 1787982654 | 16.11° C | 92% | 1022.1 hPa | 0 mm | - | 0 W/m² | - |
| 1787982350 | 16.11° C | 92% | 1022 hPa | 0 mm | - | 0 W/m² | - |
| 1787982045 | 16.67° C | 92% | 1021.9 hPa | 0 mm | - | 0 W/m² | - |
| 1787981740 | 16.67° C | 92% | 1021.7 hPa | 0 mm | - | 0 W/m² | - |
| 1787981440 | 16.67° C | 91% | 1021.7 hPa | 0 mm | - | 0 W/m² | - |
| 1787981135 | 16.67° C | 90% | 1022.1 hPa | 0 mm | - | 0 W/m² | - |
| 1787980833 | 17.22° C | 89% | 1022 hPa | 0 mm | - | 0 W/m² | - |
| 1787980529 | 17.78° C | 88% | 1021.8 hPa | 0 mm | - | 0 W/m² | - |
| 1787980224 | 17.78° C | 86% | 1021.9 hPa | 0 mm | - | 0 W/m² | - |
| 1787979924 | 18.33° C | 84% | 1021.7 hPa | 0 mm | - | 0 W/m² | - |
| 1787979624 | 18.33° C | 84% | 1021.7 hPa | 0 mm | - | 0 W/m² | - |
| 1787979319 | 18.33° C | 84% | 1021.8 hPa | 0 mm | - | 0 W/m² | - |
| 1787979019 | 18.33° C | 83% | 1021.6 hPa | 0 mm | - | 0 W/m² | - |
| 1787978717 | 18.89° C | 83% | 1021.6 hPa | 0 mm | - | 0 W/m² | - |
| 1787978413 | 18.89° C | 83% | 1021.5 hPa | 0 mm | - | 0 W/m² | - |
| 1787978108 | 18.89° C | 82% | 1021.5 hPa | 0 mm | - | 0 W/m² | - |
| 1787977809 | 19.44° C | 81% | 1021.4 hPa | 0 mm | - | 0 W/m² | - |
| 1787977508 | 18.89° C | 83% | 1021.6 hPa | 0 mm | - | 0 W/m² | - |
| 1787977203 | 19.44° C | 83% | 1021.5 hPa | 0 mm | - | 0 W/m² | - |
| 1787976899 | 19.44° C | 83% | 1021.3 hPa | 0 mm | - | 0 W/m² | - |
* Rain latest hour (hover to see other rain measurements)
** Current wind speed in m/s (hover to see current wind gust speed)